Previsão horária em Juuka

Hoje, 14 Junho, Segunda-feira

Tempo Temperatura Precipitação Vento Pressão Humidade
00:00 +8°C° 0 mm 2 m/s 746 mmHg 82%
01:00 +8°C° 0 mm 2 m/s 746 mmHg 82%
02:00 +7°C° 0 mm 2 m/s 747 mmHg 82%
03:00 +8°C° 0 mm 2 m/s 747 mmHg 80%
04:00 +9°C° 0 mm 2 m/s 747 mmHg 78%
05:00 +9°C° 0 mm 3 m/s 747 mmHg 76%
06:00 +11°C° 0 mm 3 m/s 747 mmHg 66%
07:00 +13°C° 0 mm 3 m/s 747 mmHg 56%
08:00 +14°C° 0 mm 4 m/s 747 mmHg 47%
09:00 +15°C° 0 mm 4 m/s 748 mmHg 45%
10:00 +17°C° 0 mm 4 m/s 748 mmHg 44%
11:00 +18°C° 0 mm 4 m/s 748 mmHg 43%
12:00 +18°C° 0 mm 4 m/s 748 mmHg 41%
13:00 +19°C° 0 mm 4 m/s 747 mmHg 39%
14:00 +20°C° 0 mm 4 m/s 747 mmHg 38%
15:00 +20°C° 0 mm 4 m/s 747 mmHg 40%
16:00 +20°C° 0 mm 4 m/s 746 mmHg 43%
17:00 +20°C° 0 mm 4 m/s 746 mmHg 46%
18:00 +19°C° 0 mm 4 m/s 745 mmHg 49%
19:00 +19°C° 0 mm 5 m/s 745 mmHg 52%
20:00 +17°C° 0 mm 5 m/s 744 mmHg 55%
21:00 +16°C° 0 mm 5 m/s 744 mmHg 58%
22:00 +15°C° 0 mm 6 m/s 744 mmHg 61%
23:00 +15°C° 0 mm 6 m/s 743 mmHg 64%

Amanhã, 15 Junho, Terça-feira

Tempo Temperatura Precipitação Vento Pressão Humidade
00:00 +14°C° 0 mm 6 m/s 742 mmHg 66%
01:00 +14°C° 0 mm 6 m/s 742 mmHg 67%
02:00 +12°C° 0 mm 7 m/s 741 mmHg 69%
03:00 +12°C° 0 mm 7 m/s 740 mmHg 70%
04:00 +12°C° 0 mm 7 m/s 739 mmHg 70%
05:00 +11°C° 0 mm 7 m/s 738 mmHg 71%
06:00 +11°C° 0.5 mm 8 m/s 738 mmHg 77%
07:00 +11°C° 0.5 mm 8 m/s 737 mmHg 82%
08:00 +11°C° 0.5 mm 9 m/s 736 mmHg 87%
09:00 +11°C° 0.1 mm 9 m/s 737 mmHg 85%
10:00 +10°C° 0.1 mm 9 m/s 737 mmHg 82%
11:00 +9°C° 0.1 mm 10 m/s 737 mmHg 79%
12:00 +11°C° 0.1 mm 9 m/s 738 mmHg 71%
13:00 +13°C° 0.1 mm 8 m/s 739 mmHg 63%
14:00 +15°C° 0.1 mm 7 m/s 740 mmHg 55%
15:00 +15°C° 0.3 mm 7 m/s 740 mmHg 61%
16:00 +14°C° 0.3 mm 6 m/s 741 mmHg 67%
17:00 +14°C° 0.3 mm 6 m/s 741 mmHg 72%
18:00 +14°C° 0.2 mm 6 m/s 741 mmHg 69%
19:00 +13°C° 0.2 mm 5 m/s 742 mmHg 67%
20:00 +13°C° 0.2 mm 5 m/s 742 mmHg 64%
21:00 +12°C° 0 mm 4 m/s 742 mmHg 68%
22:00 +11°C° 0 mm 4 m/s 743 mmHg 72%
23:00 +10°C° 0 mm 4 m/s 743 mmHg 76%

Depois de amanhã, 16 Junho, Quarta-feira

Tempo Temperatura Precipitação Vento Pressão Humidade
00:00 +10°C° 0 mm 4 m/s 744 mmHg 77%
01:00 +8°C° 0 mm 5 m/s 744 mmHg 77%
02:00 +8°C° 0 mm 5 m/s 744 mmHg 78%
03:00 +8°C° 0.1 mm 5 m/s 745 mmHg 78%
04:00 +8°C° 0.1 mm 5 m/s 745 mmHg 78%
05:00 +9°C° 0.1 mm 5 m/s 746 mmHg 78%
06:00 +9°C° 0 mm 5 m/s 746 mmHg 71%
07:00 +10°C° 0 mm 5 m/s 746 mmHg 64%
08:00 +12°C° 0 mm 5 m/s 747 mmHg 57%
09:00 +13°C° 0 mm 5 m/s 747 mmHg 53%
10:00 +14°C° 0 mm 4 m/s 747 mmHg 50%
11:00 +15°C° 0 mm 4 m/s 748 mmHg 46%
12:00 +15°C° 0 mm 4 m/s 748 mmHg 44%
13:00 +15°C° 0 mm 4 m/s 748 mmHg 42%
14:00 +15°C° 0 mm 4 m/s 749 mmHg 40%
15:00 +17°C° 0 mm 4 m/s 749 mmHg 38%
16:00 +16°C° 0 mm 5 m/s 749 mmHg 35%
17:00 +16°C° 0 mm 5 m/s 749 mmHg 32%
18:00 +15°C° 0 mm 4 m/s 749 mmHg 36%
19:00 +14°C° 0 mm 4 m/s 750 mmHg 41%
20:00 +13°C° 0 mm 3 m/s 750 mmHg 45%
21:00 +12°C° 0 mm 3 m/s 750 mmHg 52%
22:00 +10°C° 0 mm 2 m/s 751 mmHg 58%
23:00 +8°C° 0 mm 2 m/s 751 mmHg 64%

17 Junho, Quinta-feira

Tempo Temperatura Precipitação Vento Pressão Humidade
00:00 +7°C° 0 mm 2 m/s 752 mmHg 66%
01:00 +7°C° 0 mm 2 m/s 752 mmHg 68%
02:00 +7°C° 0 mm 1 m/s 753 mmHg 69%
03:00 +7°C° 0 mm 2 m/s 753 mmHg 66%
04:00 +8°C° 0 mm 2 m/s 753 mmHg 64%
05:00 +9°C° 0 mm 2 m/s 754 mmHg 61%
06:00 +12°C° 0 mm 2 m/s 754 mmHg 56%
07:00 +14°C° 0 mm 2 m/s 754 mmHg 51%
08:00 +15°C° 0 mm 2 m/s 754 mmHg 45%
09:00 +17°C° 0 mm 2 m/s 754 mmHg 43%
10:00 +18°C° 0 mm 2 m/s 754 mmHg 41%
11:00 +19°C° 0 mm 2 m/s 754 mmHg 39%
12:00 +20°C° 0 mm 2 m/s 754 mmHg 39%
13:00 +20°C° 0 mm 2 m/s 754 mmHg 40%
14:00 +21°C° 0 mm 2 m/s 754 mmHg 41%
15:00 +21°C° 0 mm 3 m/s 754 mmHg 41%
16:00 +22°C° 0 mm 4 m/s 753 mmHg 41%
17:00 +23°C° 0 mm 4 m/s 753 mmHg 41%
18:00 +22°C° 0 mm 4 m/s 753 mmHg 46%
19:00 +21°C° 0 mm 4 m/s 753 mmHg 51%
20:00 +20°C° 0 mm 3 m/s 753 mmHg 56%
21:00 +18°C° 0 mm 3 m/s 753 mmHg 62%
22:00 +17°C° 0 mm 3 m/s 753 mmHg 68%
23:00 +14°C° 0 mm 3 m/s 753 mmHg 74%

18 Junho, Sexta-feira

Tempo Temperatura Precipitação Vento Pressão Humidade
00:00 +14°C° 0 mm 3 m/s 753 mmHg 76%
01:00 +13°C° 0 mm 3 m/s 753 mmHg 77%
02:00 +13°C° 0 mm 3 m/s 753 mmHg 78%
03:00 +13°C° 0 mm 3 m/s 753 mmHg 75%
04:00 +13°C° 0 mm 4 m/s 753 mmHg 73%
05:00 +13°C° 0 mm 4 m/s 752 mmHg 70%
06:00 +15°C° 0 mm 4 m/s 752 mmHg 64%
07:00 +17°C° 0 mm 4 m/s 752 mmHg 59%
08:00 +17°C° 0 mm 5 m/s 752 mmHg 54%
09:00 +20°C° 0 mm 5 m/s 752 mmHg 50%
10:00 +22°C° 0 mm 5 m/s 751 mmHg 47%
11:00 +23°C° 0 mm 5 m/s 751 mmHg 44%
12:00 +25°C° 0 mm 5 m/s 751 mmHg 43%
13:00 +26°C° 0 mm 5 m/s 751 mmHg 41%
14:00 +27°C° 0 mm 5 m/s 751 mmHg 40%
15:00 +27°C° 0 mm 5 m/s 750 mmHg 41%
16:00 +27°C° 0 mm 5 m/s 750 mmHg 42%
17:00 +27°C° 0 mm 5 m/s 750 mmHg 42%
18:00 +26°C° 0 mm 5 m/s 749 mmHg 44%
19:00 +25°C° 0 mm 5 m/s 749 mmHg 46%
20:00 +23°C° 0 mm 5 m/s 749 mmHg 47%
21:00 +22°C° 0 mm 5 m/s 749 mmHg 52%
22:00 +21°C° 0 mm 6 m/s 749 mmHg 57%
23:00 +20°C° 0 mm 6 m/s 749 mmHg 62%

19 Junho, Sábado

Tempo Temperatura Precipitação Vento Pressão Humidade
00:00 +19°C° 0.1 mm 6 m/s 749 mmHg 69%
01:00 +19°C° 0.1 mm 6 m/s 749 mmHg 76%
02:00 +17°C° 0.1 mm 5 m/s 750 mmHg 82%
03:00 +16°C° 0 mm 5 m/s 750 mmHg 81%
04:00 +15°C° 0 mm 4 m/s 751 mmHg 80%
05:00 +13°C° 0 mm 4 m/s 752 mmHg 79%
06:00 +14°C° 0 mm 3 m/s 753 mmHg 72%
07:00 +16°C° 0 mm 3 m/s 753 mmHg 65%
08:00 +17°C° 0 mm 3 m/s 754 mmHg 58%
09:00 +18°C° 0 mm 2 m/s 754 mmHg 53%
10:00 +20°C° 0 mm 2 m/s 755 mmHg 48%
11:00 +22°C° 0 mm 1 m/s 755 mmHg 43%
12:00 +23°C° 0 mm 1 m/s 755 mmHg 40%
13:00 +23°C° 0 mm 1 m/s 755 mmHg 38%
14:00 +24°C° 0 mm 1 m/s 755 mmHg 36%
15:00 +23°C° 0 mm 1 m/s 755 mmHg 38%
16:00 +23°C° 0 mm 1 m/s 755 mmHg 40%
17:00 +22°C° 0 mm 1 m/s 755 mmHg 42%
18:00 +21°C° 0 mm 1 m/s 755 mmHg 47%
19:00 +20°C° 0 mm 1 m/s 754 mmHg 51%
20:00 +19°C° 0 mm 1 m/s 754 mmHg 56%
21:00 +18°C° 0.2 mm 1 m/s 754 mmHg 64%
22:00 +17°C° 0.2 mm 2 m/s 754 mmHg 71%
23:00 +16°C° 0.2 mm 2 m/s 754 mmHg 78%
Mostrar mais

Necessitamos do seu Consentimento

A Meteoprog e os seus Fornecedores de Serviços podem armazenar e aceder a dados pessoais como cookies, identificadores do dispositivo ou outras tecnologias semelhantes existentes no seu dispositivo e processar estes dados para personalizar conteúdos e anúncios, assim como funcionalidades nas redes sociais e análise de tráfego.

  • Armazenar e/ou aceder a informações no seu dispositivo

    Os cookies, identificadores do dispositivo ou outras informações podem ser armazenados ou acedidos no seu dispositivo, para os fins acima indicados.

  • Anúncios e conteúdos personalizados, medição de anúncios e conteúdos, dados sobre o público-alvo e desenvolvimento de produtos

    Os anúncios e os conteúdos podem ser personalizados com base num perfil. Podem ser adicionados dados adicionais para uma maior personalização dos anúncios e dos conteúdos. A eficácia dos anúncios e dos conteúdos pode ser medida. Podem ser obtidas informações sobre o público que visualizou os anúncios e os conteúdos. Estes dados podem ser usados para desenvolver ou melhorar sistemas, softwares ou a experiência do utilizador.

Ao clicar em "Eu concordo”, permitirá o uso de cookies, identificadores do dispositivo e web beacons mencionados ou outras tecnologias semelhantes. As configurações do navegador do seu dispositivo podem ser alteradas.

Para certos fins, podem ser invocados interesses legítimos ao invés de consentimento. Pode ler mais informação sobre este assunto na nossa Política de Privacidade e Cookies.